TimeCDT,TemperatureF,Dew PointF,Humidity,Sea Level PressureIn,VisibilityMPH,Wind Direction,Wind SpeedMPH,Gust SpeedMPH,PrecipitationIn,Events,Conditions,WindDirDegrees,DateUTC
12:15 AM,59.0,50.9,74,30.13,10.0,Calm,Calm,-,N/A,,Clear,0,2012-10-05 05:15:00
12:35 AM,58.3,50.9,76,30.12,10.0,ENE,4.6,-,N/A,,Clear,60,2012-10-05 05:35:00
12:55 AM,57.2,50.9,79,30.12,10.0,NE,4.6,-,N/A,,Clear,50,2012-10-05 05:55:00
1:15 AM,57.4,51.1,79,30.12,10.0,Calm,Calm,-,N/A,,Clear,0,2012-10-05 06:15:00
1:35 AM,57.2,51.8,82,30.11,10.0,ENE,6.9,-,N/A,,Clear,60,2012-10-05 06:35:00
1:55 AM,56.8,51.8,83,30.11,10.0,ENE,8.1,-,N/A,,Clear,60,2012-10-05 06:55:00
2:15 AM,56.8,52.0,84,30.10,10.0,ENE,6.9,-,N/A,,Clear,60,2012-10-05 07:15:00
2:35 AM,57.2,52.5,84,30.09,10.0,NE,9.2,-,N/A,,Clear,40,2012-10-05 07:35:00
2:55 AM,57.2,52.3,84,30.09,10.0,NE,9.2,-,N/A,,Clear,40,2012-10-05 07:55:00
3:15 AM,56.8,52.3,85,30.09,10.0,NE,5.8,-,N/A,,Clear,40,2012-10-05 08:15:00
3:35 AM,56.5,52.2,85,30.09,10.0,Calm,Calm,-,N/A,,Clear,0,2012-10-05 08:35:00
3:55 AM,56.3,52.0,85,30.07,10.0,ENE,5.8,-,N/A,,Clear,60,2012-10-05 08:55:00
4:15 AM,55.6,51.8,87,30.07,10.0,ENE,4.6,-,N/A,,Clear,70,2012-10-05 09:15:00
4:35 AM,54.9,51.6,89,30.07,10.0,Calm,Calm,-,N/A,,Clear,0,2012-10-05 09:35:00
4:55 AM,55.6,52.2,88,30.07,10.0,NNE,3.5,-,N/A,,Clear,20,2012-10-05 09:55:00
5:15 AM,55.2,51.8,88,30.07,10.0,Calm,Calm,-,N/A,,Clear,0,2012-10-05 10:15:00
5:35 AM,54.5,51.1,88,30.08,10.0,North,4.6,-,N/A,,Clear,10,2012-10-05 10:35:00
5:55 AM,53.8,50.9,90,30.08,10.0,North,4.6,-,N/A,,Clear,10,2012-10-05 10:55:00
6:15 AM,53.2,50.2,89,30.09,10.0,Calm,Calm,-,N/A,,Clear,0,2012-10-05 11:15:00
6:35 AM,53.4,50.5,90,30.09,10.0,Calm,Calm,-,N/A,,Clear,0,2012-10-05 11:35:00
6:55 AM,53.2,50.2,89,30.09,10.0,Calm,Calm,-,N/A,,Clear,0,2012-10-05 11:55:00
7:15 AM,53.2,50.5,91,30.09,10.0,Calm,Calm,-,N/A,,Clear,0,2012-10-05 12:15:00
7:35 AM,53.4,50.7,91,30.10,10.0,Calm,Calm,-,N/A,,Clear,0,2012-10-05 12:35:00
7:55 AM,53.1,50.0,89,30.11,10.0,Calm,Calm,-,N/A,,Clear,0,2012-10-05 12:55:00
8:15 AM,52.5,50.0,91,30.11,10.0,Calm,Calm,-,N/A,,Clear,0,2012-10-05 13:15:00
8:35 AM,53.6,50.9,91,30.12,10.0,Calm,Calm,-,N/A,,Clear,0,2012-10-05 13:35:00
8:55 AM,54.5,51.1,88,30.12,10.0,Calm,Calm,-,N/A,,Scattered Clouds,0,2012-10-05 13:55:00
9:15 AM,55.9,51.8,86,30.12,10.0,NNE,4.6,-,N/A,,Overcast,30,2012-10-05 14:15:00
9:35 AM,56.8,52.2,84,30.13,10.0,NNE,4.6,-,N/A,,Overcast,20,2012-10-05 14:35:00
9:55 AM,58.3,52.3,81,30.13,10.0,Calm,Calm,-,N/A,,Scattered Clouds,0,2012-10-05 14:55:00
10:15 AM,59.5,52.9,79,30.14,10.0,Calm,Calm,-,N/A,,Clear,0,2012-10-05 15:15:00
10:35 AM,60.3,52.9,77,30.14,10.0,Calm,Calm,-,N/A,,Clear,0,2012-10-05 15:35:00
10:55 AM,61.0,53.1,75,30.14,10.0,Calm,Calm,-,N/A,,Clear,0,2012-10-05 15:55:00
11:15 AM,62.2,53.1,72,30.14,10.0,Calm,Calm,-,N/A,,Clear,0,2012-10-05 16:15:00
11:35 AM,63.5,53.2,69,30.13,10.0,Calm,Calm,-,N/A,,Clear,0,2012-10-05 16:35:00
12:15 PM,67.3,53.6,61,30.12,10.0,Calm,Calm,-,N/A,,Clear,0,2012-10-05 17:15:00
12:55 PM,71.2,54.0,54,30.10,10.0,Calm,Calm,-,N/A,,Clear,0,2012-10-05 17:55:00
1:15 PM,72.3,54.5,53,30.09,10.0,Calm,Calm,-,N/A,,Clear,0,2012-10-05 18:15:00
1:35 PM,74.3,54.0,49,30.07,10.0,Calm,Calm,-,N/A,,Clear,0,2012-10-05 18:35:00
1:55 PM,75.4,54.7,48,30.06,10.0,ENE,4.6,-,N/A,,Clear,70,2012-10-05 18:55:00
2:15 PM,78.1,55.4,45,30.05,10.0,ENE,4.6,-,N/A,,Clear,70,2012-10-05 19:15:00
2:35 PM,79.2,55.6,44,30.04,10.0,East,5.8,-,N/A,,Clear,90,2012-10-05 19:35:00
3:15 PM,81.9,54.9,39,30.00,10.0,ENE,9.2,-,N/A,,Clear,70,2012-10-05 20:15:00
3:35 PM,82.9,54.5,37,29.99,10.0,ENE,9.2,-,N/A,,Clear,70,2012-10-05 20:35:00
3:55 PM,84.2,53.8,35,29.98,10.0,East,10.4,-,N/A,,Clear,90,2012-10-05 20:55:00
4:15 PM,85.1,52.5,32,29.98,10.0,East,9.2,-,N/A,,Clear,100,2012-10-05 21:15:00
4:35 PM,85.6,52.9,32,29.97,10.0,East,10.4,-,N/A,,Clear,90,2012-10-05 21:35:00
4:55 PM,86.0,52.9,32,29.95,10.0,East,9.2,-,N/A,,Clear,100,2012-10-05 21:55:00
5:15 PM,86.2,52.3,31,29.95,10.0,ESE,13.8,-,N/A,,Clear,120,2012-10-05 22:15:00
5:55 PM,86.5,49.5,28,29.94,10.0,ESE,15.0,-,N/A,,Clear,110,2012-10-05 22:55:00
6:15 PM,86.2,50.2,29,29.93,10.0,ESE,13.8,-,N/A,,Clear,120,2012-10-05 23:15:00
6:35 PM,85.1,51.6,31,29.93,10.0,ESE,10.4,-,N/A,,Clear,120,2012-10-05 23:35:00
6:55 PM,83.1,52.2,34,29.94,10.0,ESE,10.4,-,N/A,,Clear,120,2012-10-05 23:55:00
7:15 PM,80.4,54.0,40,29.94,10.0,SE,9.2,-,N/A,,Clear,130,2012-10-06 00:15:00
7:35 PM,78.3,52.7,41,29.93,10.0,SE,9.2,-,N/A,,Clear,130,2012-10-06 00:35:00
7:55 PM,76.8,53.6,44,29.93,10.0,SE,10.4,-,N/A,,Clear,140,2012-10-06 00:55:00
8:15 PM,75.9,53.2,45,29.94,10.0,SE,9.2,-,N/A,,Clear,140,2012-10-06 01:15:00
8:35 PM,73.4,54.1,51,29.95,10.0,SSE,6.9,-,N/A,,Clear,150,2012-10-06 01:35:00
8:55 PM,72.5,54.1,52,29.95,10.0,SE,4.6,-,N/A,,Clear,140,2012-10-06 01:55:00
9:15 PM,69.8,55.4,60,29.95,10.0,SE,3.5,-,N/A,,Clear,130,2012-10-06 02:15:00
9:35 PM,70.7,54.3,56,29.96,10.0,South,4.6,-,N/A,,Clear,170,2012-10-06 02:35:00
9:55 PM,69.3,53.6,57,29.96,10.0,SSE,4.6,-,N/A,,Clear,160,2012-10-06 02:55:00
10:15 PM,68.9,53.6,58,29.96,10.0,Calm,Calm,-,N/A,,Clear,0,2012-10-06 03:15:00
10:35 PM,69.8,53.8,57,29.96,10.0,Calm,Calm,-,N/A,,Clear,0,2012-10-06 03:35:00
10:55 PM,67.3,54.9,64,29.97,10.0,NNW,10.4,-,N/A,,Clear,340,2012-10-06 03:55:00
11:15 PM,69.8,56.5,63,29.98,10.0,NNW,8.1,-,N/A,,Clear,340,2012-10-06 04:15:00
11:35 PM,68.9,57.6,67,29.99,10.0,North,13.8,18.4,N/A,,Clear,350,2012-10-06 04:35:00
11:55 PM,67.1,59.0,75,29.99,10.0,North,12.7,19.6,N/A,,Clear,10,2012-10-06 04:55:00